GFSSW_2pvu_pres_297.txt.gz
Presure
201 196 200 199 196 199 200 206 213 203 200 197 213 198 207 263 270 198 192 198 188 184 187 162 171 132 164 131 175 194 113 190 137 152 117 109 118 124 123 120 112 118 131 120 122
195 194 192 186 187 194 198 201 233 212 207 205 213 207 207 213 248 252 206 193 199 198 197 190 183 140 186 150 183 138 177 117 124 122 126 116 123 102 127 120 107 119 102 129 120
196 191 189 191 189 197 206 199 225 209 233 222 212 219 221 215 204 218 255 206 185 197 196 126 193 186 185 154 181 180 129 127 115 129 128 123 126 114 112 113 125 116 109 118 125
197 190 186 185 188 202 197 187 194 215 222 215 215 206 216 216 207 218 233 250 244 192 196 200 196 182 203 187 123 190 171 184 202 106 117 109 128 130 122 120 127 90 124 111 124
195 189 187 188 196 197 203 188 184 210 217 223 208 210 205 208 210 216 216 231 234 265 201 197 194 201 198 207 188 165 154 139 123 116 123 114 124 132 115 136 112 124 127 131 125
193 194 195 202 198 200 203 203 202 191 205 212 207 204 212 201 220 214 221 218 220 240 261 199 198 198 188 181 211 193 188 165 115 168 160 122 120 122 110 125 132 112 128 122 124
192 195 197 196 197 201 201 198 202 204 193 197 226 215 225 213 203 218 206 216 225 221 233 263 204 199 187 182 196 196 194 188 124 184 110 128 211 195 142 130 128 132 117 124 124
196 198 197 197 196 196 197 199 202 209 202 194 201 213 206 218 213 214 206 205 229 224 234 226 252 219 200 192 184 186 197 188 190 183 187 113 208 203 145 123 120 113 105 121 122
227 225 227 228 237 224 213 205 203 204 208 203 189 209 207 205 210 209 207 211 219 221 233 282 223 244 270 205 196 187 182 194 193 165 179 153 120 157 163 125 151 121 119 118 111
221 228 218 221 223 238 239 243 230 211 206 202 207 207 210 207 205 198 202 204 217 223 221 270 270 220 128 260 268 199 192 188 192 200 191 182 172 192 108 181 128 120 152 122 130
223 224 237 240 232 225 220 244 259 251 225 215 205 205 210 213 204 208 200 203 217 215 218 233 268 256 239 245 271 294 197 193 188 193 201 187 184 192 173 198 113 120 184 117 133
220 223 239 236 253 258 272 263 254 271 245 238 215 205 205 215 213 208 194 212 207 211 214 223 246 249 254 251 252 270 238 200 195 193 188 206 194 186 195 189 195 97 151 130 127
214 228 231 239 257 287 323 348 320 252 294 271 240 218 208 205 212 210 209 214 205 210 208 210 216 244 258 247 245 247 268 272 214 201 195 194 205 194 182 174 186 162 181 130 120
208 229 235 240 250 305 336 341 340 354 343 328 262 234 220 210 209 208 213 201 210 206 209 204 207 222 247 256 235 243 239 265 269 252 208 202 199 206 193 182 172 182 174 186 173
223 228 233 244 263 321 260 531 469 358 374 319 309 250 234 216 209 213 204 219 202 198 199 201 212 213 233 240 250 223 247 242 265 262 249 203 200 201 199 191 170 180 152 144 157
214 237 229 251 289 346 408 306 418 419 343 361 334 263 248 233 216 214 216 207 209 197 196 199 211 205 210 227 245 243 233 239 239 259 266 250 212 193 188 195 191 181 190 177 155
212 233 242 267 308 315 378 433 409 416 450 349 348 316 247 240 229 219 217 215 196 208 210 198 206 213 203 212 228 241 249 229 247 237 251 263 270 206 194 184 189 195 184 183 195
216 228 250 269 276 315 440 401 376 376 399 422 351 329 275 239 237 226 217 214 207 205 207 203 194 215 207 205 213 226 237 244 227 247 235 241 265 274 206 198 193 186 196 188 181
218 221 251 288 301 300 431 381 356 422 380 423 339 327 306 242 229 230 226 216 212 204 208 208 196 208 211 203 207 211 226 235 242 241 240 229 238 268 277 240 202 199 187 183 192
220 219 249 287 296 297 424 373 344 398 364 400 362 333 314 279 237 228 226 221 212 211 208 208 202 202 206 206 200 208 206 223 237 243 235 232 231 232 256 115 161 224 201 170 183
222 221 241 276 289 293 429 376 337 392 371 372 388 324 317 292 258 234 229 227 217 208 209 207 208 197 199 203 205 197 206 211 217 233 243 234 231 235 230 246 255 193 254 203 199
227 226 251 273 286 296 318 386 340 390 374 370 384 313 322 308 272 246 238 233 225 214 207 208 206 204 205 200 204 202 198 206 209 219 233 233 233 230 231 266 236 252 242 66 222
234 239 249 273 286 293 305 398 350 366 373 362 369 337 320 304 293 263 240 235 229 221 215 204 208 210 198 205 201 209 204 207 209 207 217 227 232 231 229 223 255 230 242 254 266
234 243 243 270 283 292 298 411 367 326 389 360 358 349 305 308 295 275 259 241 231 223 219 212 212 211 210 204 203 202 206 205 204 207 205 213 226 223 227 225 226 227 250 231 241
234 241 259 270 279 279 294 305 384 343 335 378 355 352 317 308 294 287 271 256 240 235 224 219 213 215 213 214 214 198 196 203 207 209 206 205 210 219 225 221 222 226 223 241 233
224 253 253 261 278 269 289 298 397 359 327 400 369 351 335 303 303 284 280 271 255 245 233 231 219 213 215 216 210 213 206 200 202 203 205 206 202 209 216 228 221 225 220 228 230
233 251 238 258 275 281 284 316 379 378 344 316 395 364 349 319 304 300 278 273 270 258 248 236 231 227 219 222 216 216 205 205 197 198 198 210 213 209 210 218 228 216 217 222 223

GFSSW_2pvu_pres_303.txt.gz
Presure
216 226 217 225 216 218 192 213 205 203 192 202 200 202 201 201 200 205 212 228 216 201 199 195 195 191 192 188 190 185 180 143 181 117 185 152 120 128 132 133 133 117 107 98 110
231 230 229 220 218 213 212 209 199 208 201 204 208 203 209 196 206 203 205 210 218 220 208 196 192 198 186 189 189 190 180 146 189 122 155 129 113 110 122 131 136 123 122 131 112
217 214 212 214 220 219 218 219 216 212 208 206 207 205 199 211 198 197 216 209 204 211 223 218 197 192 197 189 189 183 187 190 191 131 130 119 184 106 126 111 121 132 129 113 126
197 196 187 198 201 198 199 200 207 219 213 207 200 195 193 196 206 207 208 203 215 204 214 213 210 200 192 196 189 186 183 186 189 197 119 132 106 114 138 154 117 121 121 136 127
193 196 197 198 200 200 199 200 200 200 202 201 211 203 196 193 199 215 195 229 206 215 201 209 219 289 209 191 197 187 191 177 187 192 176 225 132 115 113 132 143 121 130 116 127
211 214 218 229 223 229 219 209 205 198 199 201 201 200 198 192 201 210 204 214 226 204 213 214 207 226 264 201 195 196 190 186 183 187 100 178 115 168 130 140 119 139 102 121 129
206 210 215 229 238 237 234 235 234 238 240 248 203 197 205 201 214 206 208 202 225 227 202 219 220 205 252 213 202 188 192 192 195 191 189 109 223 118 130 134 136 118 156 94 111
197 195 201 211 215 215 222 218 222 225 232 232 240 257 215 202 205 211 213 209 207 226 224 210 220 220 206 262 208 200 189 198 188 198 170 188 183 216 185 175 132 130 114 129 131
214 210 210 209 206 195 205 220 209 247 228 219 218 232 249 252 209 208 212 210 204 217 249 214 213 213 220 225 261 212 198 196 195 196 191 183 184 134 169 195 165 127 102 121 120
206 207 202 196 211 204 223 201 229 236 234 217 248 211 241 238 243 254 211 212 210 204 226 221 209 215 217 223 235 239 198 201 191 205 181 177 182 192 176 205 181 189 161 144 128
207 208 210 219 217 226 219 183 225 253 245 249 253 235 261 282 242 257 261 217 212 217 208 224 218 210 209 210 208 208 256 207 205 196 208 199 185 176 187 174 194 134 189 123 137
199 214 212 207 216 209 221 226 245 250 261 261 293 306 321 335 356 266 263 256 217 215 211 216 219 207 200 206 215 225 234 256 206 204 188 200 194 179 188 186 197 210 163 188 180
194 212 195 213 220 222 233 240 244 257 279 300 345 377 455 467 379 356 292 260 257 214 216 206 212 212 212 213 210 204 223 227 249 211 201 196 205 186 181 179 178 190 198 187 115
210 207 203 224 226 221 225 253 252 264 287 341 389 452 463 485 452 345 348 278 268 250 210 214 205 218 229 217 221 212 208 216 227 256 213 202 200 193 196 177 189 180 188 192 187
207 202 220 208 224 223 241 255 258 270 288 361 463 412 420 451 444 344 350 277 273 261 237 210 213 209 225 220 211 213 205 209 220 231 238 221 207 196 193 205 197 180 181 193 196
210 204 217 218 228 228 254 254 254 259 296 333 419 383 395 396 432 357 334 293 272 264 256 219 211 213 207 213 215 210 214 206 218 224 242 251 224 202 193 192 200 189 187 182 179
202 211 218 223 221 235 249 251 245 233 293 334 429 371 395 366 418 347 323 320 275 269 255 235 212 214 212 217 220 216 216 215 229 227 230 202 243 204 205 202 184 203 191 193 181
203 204 215 224 220 238 240 237 246 268 300 319 442 360 387 364 381 328 321 328 284 259 250 252 228 210 203 214 213 206 204 209 213 216 217 263 268 84 250 200 195 188 173 197 187
210 208 215 218 224 240 234 231 254 266 287 305 372 414 395 358 365 327 310 310 286 258 246 254 237 215 201 207 214 208 209 204 206 218 216 222 262 259 239 265 198 199 198 175 190
203 200 215 214 227 242 233 230 264 259 276 302 315 430 381 370 352 333 314 307 296 274 255 244 242 224 205 205 211 216 211 203 207 217 220 218 223 261 254 234 247 235 202 195 181
203 210 220 223 234 230 243 232 259 270 271 311 323 413 426 373 354 323 295 302 303 279 265 247 242 234 217 203 201 208 208 210 211 219 216 214 215 234 263 247 251 186 269 208 192
207 210 220 225 223 229 238 233 253 262 269 291 306 316 430 376 362 331 290 319 307 288 264 253 237 238 225 208 204 204 210 207 213 212 207 209 213 225 244 251 238 247 240 263 221
205 221 226 216 229 227 243 237 250 254 284 278 293 307 330 405 363 347 305 309 309 292 275 263 243 237 233 216 203 203 201 204 215 209 202 213 207 230 207 231 248 234 244 241 255
228 230 235 233 236 235 239 241 253 261 271 272 294 308 298 406 376 349 335 286 312 298 283 275 252 242 240 227 217 212 211 207 206 213 203 199 194 199 210 211 233 247 232 237 245
215 222 227 234 233 232 244 233 259 260 268 277 286 301 288 304 456 375 343 327 281 301 288 273 268 253 246 236 224 219 210 207 202 200 198 202 204 212 206 208 209 227 249 238 230
210 215 222 229 230 241 247 264 272 262 266 278 284 293 298 282 309 419 359 347 321 280 293 283 271 259 250 242 234 226 217 210 209 198 197 202 201 214 209 206 207 203 222 241 240
215 214 221 227 225 235 241 274 268 261 287 277 287 285 297 315 291 353 424 366 341 319 291 287 274 263 251 248 240 218 225 221 210 209 207 195 200 199 203 196 200 203 203 211 238

GFSSW_2pvu_pres_306.txt.gz
Presure
189 201 207 213 231 230 228 224 229 222 220 218 218 211 218 211 211 210 207 215 221 226 237 201 196 194 191 192 193 192 129 128 195 202 166 132 133 119 186 118 139 116 124 116 108
245 242 240 238 233 237 230 228 233 228 224 219 216 214 212 206 203 191 203 204 204 207 222 236 193 198 194 194 189 196 188 186 197 201 157 131 126 131 119 149 121 130 136 110 125
197 229 213 195 192 195 196 195 193 200 224 222 224 217 211 207 201 204 203 205 208 202 205 216 224 206 196 193 194 192 190 187 170 193 197 121 131 114 139 171 117 135 133 134 138
192 191 197 200 199 195 193 193 195 201 204 201 206 219 229 218 207 202 204 208 203 200 207 204 207 229 198 196 197 195 192 183 187 188 196 194 122 207 124 122 154 140 124 133 137
202 203 204 208 211 215 217 220 237 245 224 206 203 205 204 209 220 222 204 205 205 208 199 204 209 207 226 203 192 199 195 192 188 195 189 196 188 123 142 125 168 167 124 146 129
209 212 210 208 217 209 216 212 221 233 241 250 256 242 204 202 205 210 215 195 198 195 200 207 205 222 206 223 210 196 196 195 189 189 198 154 199 174 164 124 120 126 132 141 91
204 217 208 210 213 211 227 226 219 220 220 219 226 233 246 250 228 206 210 210 197 199 200 219 204 215 212 207 218 213 193 197 194 193 189 192 194 92 178 194 130 124 132 131 136
207 213 204 217 217 214 216 209 208 206 208 219 214 224 227 231 238 253 218 207 203 202 198 209 207 202 219 213 210 225 211 193 195 196 175 189 181 190 193 172 196 129 130 116 124
208 207 215 215 207 201 202 218 218 218 223 228 239 224 241 216 225 234 250 242 206 210 202 203 215 211 223 217 214 206 221 214 192 195 196 194 178 185 192 211 201 200 149 133 117
207 209 209 195 206 200 218 204 200 215 224 226 233 242 260 258 240 257 231 249 254 220 212 211 218 207 225 227 217 214 205 271 208 192 196 199 173 180 153 191 207 187 118 141 112
209 210 199 206 208 210 205 205 220 226 228 243 281 281 289 281 300 299 279 233 246 257 266 213 218 220 209 227 207 208 215 204 241 207 197 202 186 182 178 188 200 211 115 159 179
203 213 214 209 209 210 214 218 218 235 254 264 260 273 273 286 325 355 335 293 261 255 249 254 172 182 199 218 214 205 213 220 236 214 208 191 199 185 182 180 185 215 193 197 146
196 207 197 209 203 199 218 222 232 245 253 256 260 282 287 376 516 490 514 377 327 261 262 272 168 207 204 205 218 214 214 219 207 253 218 202 189 194 189 180 185 188 209 195 195
207 199 203 194 200 206 212 229 227 245 247 266 256 305 343 461 418 420 459 493 360 325 265 257 256 212 217 205 222 214 209 165 214 203 256 214 195 197 190 188 177 182 184 219 196
197 199 202 205 205 208 214 229 234 240 251 258 253 294 343 458 382 386 363 457 401 343 274 306 265 264 214 210 209 220 207 208 217 213 227 235 211 201 199 195 187 183 191 182 202
189 193 195 206 209 217 219 229 233 244 244 247 269 287 329 404 377 366 362 456 418 337 318 290 267 260 216 205 206 214 210 210 207 217 214 247 241 207 200 197 195 191 173 189 184
195 199 203 213 215 217 231 241 239 234 253 257 266 283 321 410 369 363 369 415 395 334 324 331 277 257 251 212 210 207 216 211 219 214 216 224 206 256 207 204 195 196 200 192 193
203 201 205 217 224 239 240 241 241 240 248 249 263 281 303 409 368 359 367 386 378 325 320 324 299 258 253 220 212 210 208 213 206 218 198 185 220 223 238 206 197 198 198 190 178
202 207 215 215 224 223 238 239 237 246 251 257 277 269 296 330 372 355 370 357 370 317 306 315 279 248 247 235 206 210 201 212 227 214 205 202 202 211 222 229 232 203 190 200 194
208 224 205 222 218 227 222 232 245 239 242 255 278 270 291 320 406 364 354 377 362 305 311 316 272 251 244 243 214 201 206 194 213 219 215 202 206 223 227 169 70 260 199 121 141
206 207 212 217 224 222 229 234 240 251 256 268 275 270 291 300 315 375 351 368 335 312 304 312 279 252 246 239 217 200 198 205 204 207 205 208 204 215 206 213 215 214 248 206 200
202 213 216 212 210 220 221 244 233 258 264 272 267 270 285 290 310 398 371 354 331 313 307 307 274 249 238 246 231 209 207 208 203 206 205 210 205 208 220 220 218 227 265 244 223
202 216 217 214 210 215 221 234 244 263 272 273 267 284 290 298 294 302 380 362 342 312 302 306 289 246 242 234 231 220 209 208 211 217 212 207 204 207 216 217 216 221 223 202 254
211 204 213 210 221 217 220 237 254 296 276 272 264 277 286 309 295 309 445 365 353 324 306 301 296 252 239 240 237 228 221 214 204 201 185 215 206 207 214 105 207 216 215 228 266
201 207 211 215 211 211 230 247 261 294 283 269 273 291 277 297 302 326 286 447 363 336 312 285 299 279 242 239 240 236 235 225 212 199 194 195 201 208 214 217 204 207 213 221 227
193 203 209 211 216 213 231 252 299 288 277 283 296 287 291 299 300 300 285 294 437 354 320 296 273 292 264 244 238 237 240 233 226 209 196 194 196 210 218 223 217 203 207 215 213
193 203 211 206 214 216 233 258 282 298 285 271 292 297 290 293 298 296 288 275 290 446 349 318 277 292 280 259 246 243 228 237 229 216 208 200 197 204 213 213 222 215 199 207 220

GFSSW_2pvu_pres_312.txt.gz
Presure
170 167 174 181 177 172 169 181 192 188 192 205 201 253 248 248 248 250 248 245 238 220 212 216 206 209 208 209 207 209 202 194 163 195 191 197 144 218 203 127 139 134 130 115 124
171 173 174 182 178 191 185 216 236 234 234 231 231 227 222 218 219 229 240 244 246 238 228 227 231 224 202 205 203 209 205 191 156 198 194 202 197 167 206 193 144 164 95 93 122
179 192 197 193 192 216 226 219 220 213 203 200 201 194 212 211 214 213 207 208 225 239 230 225 224 231 226 232 233 231 215 195 193 196 191 201 200 209 216 158 183 139 119 104 83
196 227 229 222 209 203 196 195 214 211 230 227 227 228 225 227 233 225 209 207 205 207 230 228 222 229 210 222 221 233 247 212 189 197 195 198 202 204 209 203 198 189 132 153 139
192 195 210 203 206 223 225 229 221 217 217 220 223 214 224 230 226 229 220 223 231 211 199 220 225 221 222 219 219 223 222 251 161 191 201 197 208 197 201 205 205 191 179 193 127
229 224 223 223 230 229 225 224 230 227 229 220 224 222 221 225 224 227 233 231 219 228 254 213 211 227 224 216 215 217 218 221 249 191 196 205 205 205 195 198 201 193 165 195 141
224 224 223 218 220 220 221 228 216 221 225 220 227 217 219 225 219 218 234 240 233 223 225 248 220 217 233 215 212 215 216 217 241 207 191 200 206 210 200 197 197 199 127 199 194
228 225 228 230 208 220 224 215 206 206 224 221 220 223 228 228 229 227 236 239 234 233 238 242 236 239 217 231 218 213 219 212 203 242 192 204 205 199 201 199 189 190 190 199 141
216 224 228 223 208 214 211 214 212 220 218 214 219 215 219 221 222 228 231 230 238 250 239 238 244 248 248 220 231 217 207 182 202 218 227 211 196 199 199 190 180 195 191 200 188
213 222 215 207 204 206 203 207 212 209 206 216 218 216 239 248 250 264 268 270 269 257 264 259 253 258 248 259 223 232 209 217 210 202 215 220 193 194 207 195 181 185 201 193 209
229 217 207 206 203 201 205 202 215 214 216 217 227 238 239 238 237 249 254 258 261 271 274 267 284 260 263 253 266 67 237 212 205 201 201 217 204 191 203 205 188 178 200 197 200
199 210 207 214 206 202 208 208 206 212 224 225 232 228 236 236 250 268 282 270 292 347 324 286 289 295 298 275 273 228 220 199 210 196 211 205 220 200 196 209 189 178 192 193 193
206 202 199 200 196 203 209 215 228 223 228 231 226 239 230 245 260 282 291 327 333 322 338 367 434 228 88 309 278 267 225 233 93 209 210 216 212 222 210 209 206 200 178 192 189
197 195 195 206 203 231 229 219 220 215 217 219 233 233 242 244 262 291 341 324 315 343 434 431 430 444 340 308 305 266 210 224 215 215 212 208 217 218 226 213 207 193 185 185 188
202 210 212 213 220 212 218 208 208 210 209 230 232 244 247 250 293 322 323 311 328 339 419 424 392 406 483 364 306 307 259 204 213 206 206 216 208 214 218 223 203 203 194 187 183
205 210 212 218 249 217 215 214 206 204 226 212 248 242 243 254 324 313 309 317 349 394 385 379 366 388 506 368 272 88 96 243 214 207 209 208 229 203 216 227 225 194 194 187 186
220 218 222 225 211 214 207 205 197 208 236 229 233 240 242 278 326 308 319 324 339 392 365 411 406 403 407 412 310 281 256 258 223 216 213 206 215 227 217 216 223 221 201 195 183
222 232 228 205 206 205 203 214 212 224 231 241 238 239 245 340 317 308 322 316 338 373 349 377 351 357 370 424 293 291 262 255 254 223 221 207 66 218 222 200 104 220 228 183 194
215 213 214 217 212 210 219 226 222 232 230 236 244 247 251 341 327 300 316 317 334 374 331 333 306 339 362 338 282 284 269 238 250 245 210 212 205 79 203 217 201 95 227 221 200
212 211 218 222 224 227 223 225 222 231 233 232 244 237 296 348 326 309 311 314 328 377 341 320 301 333 368 317 275 266 273 259 250 246 216 210 127 208 137 187 229 196 181 230 199
218 220 222 222 215 230 229 231 236 237 247 254 240 258 292 318 312 316 298 315 314 345 344 327 300 323 312 302 293 268 273 255 254 243 244 207 208 213 213 225 237 206 201 212 229
204 215 217 219 228 224 231 237 242 242 258 275 273 283 288 324 302 308 310 313 308 314 420 335 308 310 299 295 290 276 273 264 258 245 248 213 212 215 216 220 227 223 203 223 219
213 207 218 221 237 220 237 247 256 255 263 277 285 298 289 314 314 303 290 295 317 306 317 331 343 307 302 293 288 274 269 262 254 239 235 248 216 216 218 215 218 226 216 213 223
205 216 208 211 223 238 227 231 252 247 268 279 302 290 296 318 315 299 304 296 283 306 307 392 325 328 299 294 287 272 268 267 256 236 218 240 232 211 213 212 211 219 225 215 216
215 208 209 219 226 225 221 235 244 251 265 294 303 302 301 319 301 346 314 300 303 281 305 301 402 315 309 296 289 275 265 267 259 255 249 233 236 217 209 211 216 209 223 218 216
205 209 221 231 225 236 235 239 240 244 258 275 299 307 305 299 300 300 328 332 306 286 282 301 318 411 310 308 293 275 270 269 267 248 248 236 231 231 215 210 211 211 212 223 215
208 201 221 223 218 236 234 235 237 249 252 265 305 303 297 284 295 291 293 303 336 309 311 286 301 348 352 307 297 281 276 276 276 262 237 238 228 235 228 210 209 206 208 210 221

GFSSW_2pvu_pres_315.txt.gz
Presure
178 178 180 180 172 172 163 167 171 176 182 181 175 182 184 189 171 190 186 190 180 180 188 187 181 182 193 191 186 193 185 172 175 179 185 198 222 148 195 178 191 122 91 170 103
187 181 174 171 173 181 181 174 180 184 181 192 195 225 237 242 240 235 231 239 238 238 244 246 250 247 221 221 211 189 183 176 179 185 182 189 215 235 214 156 190 188 146 149 139
177 178 180 187 192 200 222 190 227 228 227 222 201 201 206 207 201 200 203 199 205 216 218 217 231 242 242 240 243 219 220 181 187 197 190 193 209 230 216 210 199 151 194 110 137
198 230 228 221 204 201 191 186 193 201 209 213 213 224 229 227 233 229 230 230 225 226 222 220 203 204 234 240 232 241 231 239 199 204 206 202 210 222 214 203 201 193 151 187 103
200 200 216 220 217 233 229 226 222 229 234 235 229 229 234 234 221 227 225 222 222 226 228 235 226 215 211 226 240 238 226 232 216 210 186 204 208 213 223 203 202 198 178 159 184
197 192 201 208 245 244 242 244 243 230 231 230 231 228 219 227 228 231 230 230 230 228 236 229 236 231 214 209 214 237 235 225 225 228 201 200 207 224 211 183 195 198 196 184 177
194 195 201 198 233 220 232 233 224 229 223 220 218 217 219 220 226 228 229 234 233 212 225 227 233 239 235 228 209 211 238 226 223 222 226 220 208 223 203 214 193 196 195 187 184
200 199 199 238 228 227 231 221 214 212 212 201 205 211 215 210 209 208 217 226 227 229 234 239 223 225 237 241 228 219 205 232 134 214 215 221 244 213 207 213 196 197 194 189 102
198 208 194 214 215 209 218 212 213 212 204 204 204 212 216 217 222 227 228 232 237 244 249 244 237 241 252 234 239 250 222 224 199 152 213 225 222 226 214 208 199 195 188 189 198
200 211 212 208 212 206 206 204 202 201 204 209 215 212 220 233 240 234 246 242 237 243 249 258 267 249 248 260 249 233 258 217 198 215 218 222 213 219 231 205 205 191 193 183 182
193 218 207 200 197 194 196 204 203 210 212 225 235 240 230 219 226 219 236 225 235 233 246 256 261 276 281 251 266 251 249 255 224 216 217 145 209 210 229 230 204 198 190 187 182
210 203 203 200 192 200 201 202 214 206 225 221 223 224 207 214 208 221 227 243 227 228 234 253 296 286 287 286 300 287 284 155 223 225 219 135 212 205 221 245 204 197 190 187 184
201 199 203 210 211 211 219 221 232 250 239 218 223 220 213 203 249 234 256 256 250 287 353 347 340 336 340 311 295 305 311 247 227 222 220 220 213 202 213 238 230 204 193 190 190
196 203 204 212 227 228 225 238 231 216 223 212 208 216 217 236 246 270 262 263 324 356 336 323 321 325 329 336 339 342 63 295 249 224 230 220 216 207 207 226 246 213 193 192 193
210 212 222 209 226 221 216 208 220 219 222 215 229 244 245 257 264 279 271 341 351 347 319 341 348 400 422 434 363 371 324 306 262 251 215 225 221 193 204 210 238 240 197 191 191
232 212 221 221 222 219 220 226 232 238 247 251 254 259 261 265 272 284 294 358 343 317 338 359 396 390 388 395 414 319 390 317 292 249 233 225 233 213 215 211 221 248 200 189 188
219 213 224 225 227 229 235 247 242 240 249 255 251 256 268 285 307 310 327 339 331 321 317 358 381 400 418 387 392 399 433 346 287 249 257 216 239 221 218 211 111 220 216 194 185
197 204 225 227 228 225 227 234 238 229 228 259 269 288 308 315 309 308 317 315 323 311 325 350 328 329 329 347 343 442 437 423 303 298 263 237 228 229 216 212 212 221 231 205 190
201 208 216 215 230 234 230 226 229 235 230 225 262 298 309 306 309 314 318 319 311 311 318 326 313 314 319 315 330 385 399 424 209 285 247 243 220 227 219 217 217 212 216 177 204
204 207 211 210 208 235 226 232 233 248 244 247 259 271 312 307 308 321 317 313 305 320 317 309 305 303 289 304 344 360 382 381 292 295 252 242 236 128 222 197 218 219 219 215 240
198 208 200 209 213 222 216 232 250 254 264 254 260 273 312 299 302 310 312 325 312 310 300 316 302 308 300 313 322 365 345 353 286 283 278 241 244 218 222 231 226 223 220 189 72
196 203 201 208 203 215 223 232 231 258 261 252 267 261 295 308 292 295 307 305 330 308 296 303 317 305 307 310 316 339 330 321 302 267 278 236 242 235 216 222 228 210 98 217 220
207 196 195 206 208 215 212 220 229 254 253 261 263 268 285 315 314 297 289 307 305 325 299 294 316 302 315 305 314 333 310 302 291 279 274 250 238 241 219 218 85 77 97 178 214
196 198 194 200 209 213 208 228 227 251 255 256 260 271 281 303 297 298 311 302 303 301 318 297 302 309 300 310 306 329 302 285 275 274 269 254 231 244 240 219 75 77 136 169 211
201 198 198 199 210 204 210 214 234 235 255 255 258 267 290 305 280 312 303 296 296 305 311 315 280 309 315 300 318 329 298 279 270 269 265 256 239 237 241 240 218 215 209 193 200
200 202 200 207 205 207 225 218 232 229 247 254 263 270 291 296 304 311 307 292 288 278 301 301 307 280 334 309 293 296 293 284 270 259 264 261 254 231 240 240 224 215 206 199 199
202 201 204 211 207 202 216 214 223 226 236 254 269 276 297 300 297 309 314 290 299 382 355 336 308 312 285 332 310 307 296 282 277 266 256 256 261 256 245 240 242 223 213 206 198